This is the latest recevied weather packets stored in our database for station/object SR6NWB-11. If no packets are shown the sender has not sent any weather packets the latest 10 day(s).
| Time | Temp. | Humidity | Pressure | Rain* | Wind** | Luminosity | Snow |
|---|---|---|---|---|---|---|---|
| 1777652851 | 17.22° C | 27% | 1029.3 hPa | 0 mm | - | - | - |
| 1777652331 | 17.78° C | 26% | 1029.3 hPa | 0 mm | - | - | - |
| 1777651836 | 18.33° C | 26% | 1029.3 hPa | 0 mm | - | - | - |
| 1777651316 | 18.89° C | 25% | 1029.4 hPa | 0 mm | - | - | - |
| 1777649706 | 18.89° C | 25% | 1029.5 hPa | 0 mm | - | - | - |
| 1777649136 | 18.89° C | 25% | 1029.6 hPa | 0 mm | - | - | - |
| 1777648557 | 18.89° C | 25% | 1029.6 hPa | 0 mm | - | - | - |
| 1777647976 | 18.89° C | 25% | 1029.5 hPa | 0 mm | - | - | - |
| 1777647411 | 19.44° C | 26% | 1029.6 hPa | 0 mm | - | - | - |
| 1777646361 | 18.89° C | 27% | 1029.6 hPa | 0 mm | - | - | - |
| 1777645836 | 18.89° C | 27% | 1029.8 hPa | 0 mm | - | - | - |
| 1777645331 | 18.89° C | 28% | 1029.8 hPa | 0 mm | - | - | - |
| 1777644831 | 18.33° C | 28% | 1029.8 hPa | 0 mm | - | - | - |
| 1777644323 | 18.33° C | 28% | 1029.9 hPa | 0 mm | - | - | - |
| 1777643836 | 18.33° C | 29% | 1029.8 hPa | 0 mm | - | - | - |
| 1777643291 | 18.33° C | 29% | 1029.9 hPa | 0 mm | - | - | - |
| 1777642786 | 17.78° C | 30% | 1029.9 hPa | 0 mm | - | - | - |
| 1777642201 | 17.22° C | 30% | 1029.9 hPa | 0 mm | - | - | - |
| 1777641721 | 16.67° C | 31% | 1030 hPa | 0 mm | - | - | - |
| 1777641136 | 16.67° C | 31% | 1030 hPa | 0 mm | - | - | - |
| 1777638484 | 17.22° C | 33% | 1030.3 hPa | 0 mm | - | - | - |
| 1777637911 | 16.67° C | 33% | 1030.4 hPa | 0 mm | - | - | - |
| 1777637376 | 16.67° C | 34% | 1030.5 hPa | 0 mm | - | - | - |
| 1777636831 | 16.67° C | 33% | 1030.4 hPa | 0 mm | - | - | - |
| 1777636306 | 16.67° C | 34% | 1030.5 hPa | 0 mm | - | - | - |
* Rain latest hour (hover to see other rain measurements)
** Current wind speed in m/s (hover to see current wind gust speed)